When you browse on this site, cookies collect data to enhance your experience and personalize the content and advertising you see.
Visit our Privacy Policy to learn more. By continuing to use the site, you agree to this use of cookies and data.
  • In Latvia
  • List of Countries
  • For 7 days
  • Water Temperature
  • Weather Map
  • Weather Widgets
  • user-avatar
    Login

    Hourly Weather Brest

    Today, 10 December, Tuesday

    Time Temperature Precipitation Wind Pressure Humidity
    00:00 +3°C° 0 mm 2 mps 742 mmHg 89%
    01:00 +3°C° 0 mm 2 mps 743 mmHg 90%
    02:00 +3°C° 0 mm 2 mps 743 mmHg 91%
    03:00 +3°C° 0 mm 2 mps 743 mmHg 91%
    04:00 +2°C° 0 mm 2 mps 743 mmHg 92%
    05:00 +1°C° 0 mm 3 mps 743 mmHg 92%
    06:00 +1°C° 0 mm 3 mps 744 mmHg 92%
    07:00 +1°C° 0 mm 3 mps 744 mmHg 92%
    08:00 +1°C° 0 mm 3 mps 745 mmHg 93%
    09:00 +1°C° 0 mm 3 mps 745 mmHg 91%
    10:00 +1°C° 0 mm 4 mps 746 mmHg 89%
    11:00 +3°C° 0 mm 4 mps 746 mmHg 87%
    12:00 +3°C° 0 mm 4 mps 747 mmHg 83%
    13:00 +2°C° 0 mm 5 mps 747 mmHg 79%
    14:00 +3°C° 0 mm 5 mps 748 mmHg 75%
    15:00 +2°C° 0 mm 5 mps 748 mmHg 75%
    16:00 +1°C° 0 mm 4 mps 748 mmHg 76%
    17:00 0°C° 0 mm 4 mps 749 mmHg 76%
    18:00 0°C° 0 mm 4 mps 750 mmHg 81%
    19:00 0°C° 0 mm 4 mps 750 mmHg 86%
    20:00 0°C° 0 mm 4 mps 751 mmHg 92%
    21:00 0°C° 0 mm 4 mps 751 mmHg 88%
    22:00 0°C° 0 mm 4 mps 752 mmHg 84%
    23:00 0°C° 0 mm 4 mps 752 mmHg 80%

    Tomorrow, 11 December, Wednesday

    Time Temperature Precipitation Wind Pressure Humidity
    00:00 -1°C° 0 mm 4 mps 752 mmHg 83%
    01:00 -1°C° 0 mm 4 mps 753 mmHg 85%
    02:00 -1°C° 0 mm 3 mps 753 mmHg 87%
    03:00 -1°C° 0 mm 3 mps 753 mmHg 86%
    04:00 -1°C° 0 mm 3 mps 753 mmHg 85%
    05:00 -2°C° 0 mm 3 mps 752 mmHg 84%
    06:00 -2°C° 0 mm 2 mps 753 mmHg 83%
    07:00 -2°C° 0 mm 2 mps 753 mmHg 83%
    08:00 0°C° 0 mm 1 mps 753 mmHg 83%
    09:00 +1°C° 0 mm 1 mps 753 mmHg 80%
    10:00 +1°C° 0 mm 1 mps 752 mmHg 78%
    11:00 +1°C° 0 mm 1 mps 752 mmHg 75%
    12:00 +2°C° 0 mm 1 mps 752 mmHg 73%
    13:00 +2°C° 0 mm 1 mps 752 mmHg 71%
    14:00 +2°C° 0 mm 1 mps 751 mmHg 68%
    15:00 +2°C° 0 mm 1 mps 751 mmHg 71%
    16:00 -1°C° 0 mm 2 mps 750 mmHg 75%
    17:00 -2°C° 0 mm 2 mps 750 mmHg 78%
    18:00 -2°C° 0 mm 2 mps 750 mmHg 78%
    19:00 -2°C° 0 mm 2 mps 750 mmHg 78%
    20:00 -2°C° 0 mm 2 mps 750 mmHg 79%
    21:00 -2°C° 0 mm 3 mps 749 mmHg 77%
    22:00 -1°C° 0 mm 3 mps 749 mmHg 76%
    23:00 -1°C° 0 mm 3 mps 748 mmHg 74%

    Day after tomorrow, 12 December, Thursday

    Time Temperature Precipitation Wind Pressure Humidity
    00:00 -1°C° 0 mm 3 mps 748 mmHg 78%
    01:00 -2°C° 0 mm 4 mps 747 mmHg 82%
    02:00 -2°C° 0 mm 4 mps 747 mmHg 86%
    03:00 0°C° 0 mm 3 mps 746 mmHg 89%
    04:00 0°C° 0 mm 3 mps 745 mmHg 93%
    05:00 0°C° 0 mm 3 mps 744 mmHg 97%
    06:00 +1°C° 0 mm 3 mps 744 mmHg 96%
    07:00 +1°C° 0 mm 3 mps 744 mmHg 95%
    08:00 +1°C° 0 mm 3 mps 744 mmHg 94%
    09:00 0°C° 0 mm 4 mps 744 mmHg 91%
    10:00 0°C° 0 mm 4 mps 744 mmHg 88%
    11:00 0°C° 0 mm 5 mps 744 mmHg 85%
    12:00 +1°C° 0 mm 4 mps 744 mmHg 83%
    13:00 +1°C° 0 mm 4 mps 744 mmHg 82%
    14:00 +3°C° 0 mm 4 mps 744 mmHg 80%
    15:00 +1°C° 0 mm 4 mps 743 mmHg 84%
    16:00 0°C° 0 mm 4 mps 743 mmHg 87%
    17:00 0°C° 0 mm 4 mps 742 mmHg 91%
    18:00 0°C° 0 mm 4 mps 742 mmHg 89%
    19:00 0°C° 0 mm 4 mps 742 mmHg 88%
    20:00 +1°C° 0 mm 4 mps 742 mmHg 87%
    21:00 0°C° 0 mm 4 mps 742 mmHg 87%
    22:00 0°C° 0 mm 4 mps 742 mmHg 88%
    23:00 0°C° 0 mm 4 mps 741 mmHg 89%

    13 December, Friday

    Time Temperature Precipitation Wind Pressure Humidity
    00:00 0°C° 0 mm 4 mps 741 mmHg 90%
    01:00 0°C° 0 mm 5 mps 740 mmHg 91%
    02:00 0°C° 0 mm 5 mps 740 mmHg 93%
    03:00 0°C° 0 mm 5 mps 739 mmHg 92%
    04:00 0°C° 0 mm 5 mps 738 mmHg 92%
    05:00 +1°C° 0 mm 5 mps 738 mmHg 92%
    06:00 +1°C° 0.3 mm 6 mps 737 mmHg 91%
    07:00 +1°C° 0.3 mm 6 mps 737 mmHg 91%
    08:00 +1°C° 0.3 mm 6 mps 737 mmHg 90%
    09:00 +1°C° 0.1 mm 6 mps 737 mmHg 89%
    10:00 +2°C° 0.1 mm 6 mps 736 mmHg 87%
    11:00 +2°C° 0.1 mm 6 mps 736 mmHg 85%
    12:00 +2°C° 0 mm 6 mps 736 mmHg 82%
    13:00 +3°C° 0 mm 6 mps 736 mmHg 79%
    14:00 +3°C° 0 mm 5 mps 735 mmHg 76%
    15:00 +3°C° 0 mm 6 mps 736 mmHg 77%
    16:00 +3°C° 0 mm 6 mps 736 mmHg 78%
    17:00 +3°C° 0 mm 6 mps 736 mmHg 79%
    18:00 +3°C° 0 mm 6 mps 736 mmHg 81%
    19:00 +3°C° 0 mm 5 mps 736 mmHg 84%
    20:00 +2°C° 0 mm 5 mps 737 mmHg 86%
    21:00 +2°C° 0 mm 5 mps 737 mmHg 86%
    22:00 +2°C° 0 mm 5 mps 737 mmHg 86%
    23:00 +2°C° 0 mm 5 mps 737 mmHg 86%

    14 December, Saturday

    Time Temperature Precipitation Wind Pressure Humidity
    00:00 +2°C° 0 mm 6 mps 737 mmHg 87%
    01:00 +2°C° 0 mm 6 mps 737 mmHg 89%
    02:00 +2°C° 0 mm 6 mps 737 mmHg 90%
    03:00 +2°C° 0 mm 6 mps 737 mmHg 90%
    04:00 +2°C° 0 mm 6 mps 737 mmHg 91%
    05:00 +2°C° 0 mm 6 mps 737 mmHg 91%
    06:00 +2°C° 0 mm 5 mps 738 mmHg 91%
    07:00 +2°C° 0 mm 5 mps 738 mmHg 91%
    08:00 +2°C° 0 mm 5 mps 738 mmHg 91%
    09:00 +2°C° 0 mm 5 mps 739 mmHg 90%
    10:00 +2°C° 0 mm 5 mps 739 mmHg 88%
    11:00 +3°C° 0 mm 5 mps 739 mmHg 86%
    12:00 +3°C° 0 mm 5 mps 739 mmHg 85%
    13:00 +5°C° 0 mm 5 mps 738 mmHg 83%
    14:00 +5°C° 0 mm 5 mps 738 mmHg 81%
    15:00 +5°C° 0 mm 5 mps 738 mmHg 83%
    16:00 +5°C° 0 mm 5 mps 738 mmHg 85%
    17:00 +3°C° 0 mm 5 mps 738 mmHg 87%
    18:00 +3°C° 0 mm 5 mps 738 mmHg 86%
    19:00 +3°C° 0 mm 5 mps 739 mmHg 85%
    20:00 +3°C° 0 mm 5 mps 739 mmHg 84%
    21:00 +3°C° 0 mm 5 mps 739 mmHg 86%
    22:00 +3°C° 0 mm 5 mps 739 mmHg 88%
    23:00 +2°C° 0 mm 6 mps 739 mmHg 90%

    15 December, Sunday

    Time Temperature Precipitation Wind Pressure Humidity
    00:00 +3°C° 0 mm 6 mps 740 mmHg 87%
    01:00 +3°C° 0 mm 6 mps 740 mmHg 84%
    02:00 +3°C° 0 mm 6 mps 740 mmHg 82%
    03:00 +2°C° 0 mm 6 mps 741 mmHg 83%
    04:00 +2°C° 0 mm 6 mps 741 mmHg 84%
    05:00 +2°C° 0 mm 6 mps 741 mmHg 85%
    06:00 +2°C° 0 mm 6 mps 742 mmHg 86%
    07:00 +2°C° 0 mm 6 mps 742 mmHg 87%
    08:00 +2°C° 0 mm 6 mps 743 mmHg 89%
    09:00 +3°C° 0 mm 6 mps 743 mmHg 84%
    10:00 +3°C° 0 mm 6 mps 744 mmHg 80%
    11:00 +3°C° 0 mm 6 mps 745 mmHg 75%
    12:00 +4°C° 0 mm 6 mps 745 mmHg 73%
    13:00 +5°C° 0 mm 5 mps 745 mmHg 72%
    14:00 +5°C° 0 mm 5 mps 745 mmHg 71%
    15:00 +5°C° 0.1 mm 5 mps 745 mmHg 74%
    16:00 +5°C° 0.1 mm 5 mps 745 mmHg 78%
    17:00 +5°C° 0.1 mm 5 mps 746 mmHg 82%
    18:00 +5°C° 0.8 mm 5 mps 745 mmHg 80%
    19:00 +4°C° 0.8 mm 6 mps 745 mmHg 77%
    20:00 +4°C° 0.8 mm 6 mps 745 mmHg 74%
    21:00 +5°C° 0 mm 6 mps 745 mmHg 70%
    22:00 +5°C° 0 mm 6 mps 745 mmHg 67%
    23:00 +7°C° 0 mm 6 mps 745 mmHg 64%
    Show more